星链-30921 (STARLINK-30921 )

导读

STARLINK-30921是美国太空探索技术公司(SpaceX)于2023年11月20日发射的星链(Starlink)卫星,隶属于美国Starlink星座组网项目,旨在为全球提供低延迟、高速率的宽带互联网服务。该卫星由SpaceX部署到近地轨道,是星链全球星座建设过程中补充组网的卫星之一。

基本信息
目录编号:
58383
目录名称:
STARLINK-30921
国际标识:
2023-178K
轨道中心:
EARTH
卫星名称:
星链-30921
卫星全名:
星链-30921 (STARLINK-30921 )
卫星状态:
在轨 (已飞行1026 天)
发射日期:
2023-11-20 UTC
国别 :
美国 (US)
星等 :
--
该卫星已列入 空间交会检测服务 Space Conjunction Data Service (SCDS) ,当前飞行风险评估等级: 无高风险
轨道信息
数据来源 国际轨道数据 AOE轨道数据
星历时间 2026-09-11T14:51:03+0800
10小时前
查看轨道信息
2026-09-06T23:00:00+0800
5天前
查看轨道信息
半长轴 6840.915km 6840.866km
偏心率 0.0001545 0.0000556
轨道倾角 53.159° 53.157°
近地点辐角 88.779° 75.187°
升交点赤经 214.984° 236.767°
平近点角 271.339° 87.199°
近地点 461.721km 462.348km
远地点 463.835km 463.11km
周期 93.849分钟 93.848分钟
每日圈数 15.34375 15.343915
详细信息
固有亮度:
5
最大亮度:
0.3
卫星平台:
Starlink v2.0 mini
覆盖范围:
全球
运营商:
太空探索技术公司
运营商所在国:
美国
制造商(研发单位):
太空探索技术公司
制造商所在国:
美国
使用方式:
暂无
卫星简介
星链(Starlink)计划是由太空探索技术公司(SpaceX)提出的一个巨型低轨卫星互联网星座项目,计划在2019年至2024年间在太空搭建由约1.2万颗卫星组成的“星链”网络,其中1584颗将部署在地球上空550千米处的近地轨道,并从2020年开始工作。该卫星仍在工作。
2D轨道图
3D轨道图
轨道高度分析图
轨道倾角分析图
轨道综合分析图
查看轨道综合分析图
交会数据列表
事件ID 空间交会对象 最接近时刻(TCA) 交会距离 交会风险概率(CRP) 交会风险指数(CRI) 操作
CDM_260913-152705-838306-827421
2026-09-13T
15:27:47+0000
0.196 km
中距离
5.462663E-4 高风险 0.9
CDM_260914-022905-838306-688821
2026-09-14T
02:29:37+0000
1.250 km
极远距离
3.82186E-6 低风险 0.47
CDM_260914-000805-838306-688821
2026-09-14T
00:08:56+0000
1.552 km
极远距离
1.938643E-6 低风险 0.41
CDM_260912-044105-838306-202721
2026-09-12T
04:41:59+0000
2.470 km
极远距离
1.597637E-6 低风险 0.39
CDM_260913-205605-838306-827421
2026-09-13T
20:56:03+0000
2.063 km
极远距离
1.259685E-6 低风险 0.37
CDM_260913-192205-838306-827421
2026-09-13T
19:22:16+0000
2.094 km
极远距离
1.21863E-6 低风险 0.37
CDM_260914-014205-838306-688821
2026-09-14T
01:42:43+0000
2.525 km
极远距离
6.464876E-7 极低风险 0.31
CDM_260914-040305-838306-688821
2026-09-14T
04:03:25+0000
2.665 km
极远距离
5.993445E-7 极低风险 0.31
与全量物体交会距离演化趋势
与全量物体交会风险概率演化趋势